COSMOS 1275 DEB, 42103

Orbit data source: Space-Track

COSMOS 1275 DEB, 42103 is space debris in LEO originally from a launch on Thu, 04 Jun 1981 UTC launched from the Plesetsk Missile And Space Complex (PKMTR). Debris objects in space refer to the collection of defunct objects orbiting the Earth. Examples of debris include non-operational satellites, rocket bodies, and fragments generated from explosions, collisions, or faulty payload assembly.

Loading next visibility...
Identifier
42103, 1981-053PP
Orbit
LEO
Country
Flag of CISCIS
Related business
Manufacturer
Unknown
Mission
Spacecraft
Bus & Motor
Unknown
Mass
Unknown
Launch date (UTC)
1981-06-04 (45 years ago)
Launch vehicle
Unknown
Launch site
Plesetsk Missile And Space Complex (PKMTR)
Object type
Payload
Rocket body
Debris
Shape & HBR
Unknown shape, 0.1 m
Radar Cross Section
Small (<0.1 m²)

Expand to show TLE details & history
Last TLE update: 4 days ago

TLE from 4 days ago
0 COSMOS 1275 DEB
1 42103U 81053PP  26030.28869237  .00003416  00000-0  17250-2 0  9994
2 42103  83.1708  48.7051 0031585 113.2767 247.1743 14.15720496625395
Epoch: 2026-01-30T06:55Z
TLE epoch observation values (Epoch: 2026-01-30T06:55:43.020Z)
Latitude
Longitude
175.24667°
Altitude
851.732 km
Speed
7.422 km/s
True Right ascension
03h 14m 49s
True Declination
0° 00' 00"
Sunlit
Object was in daylight at epoch
Visualization orbit readout
Latitude
Unknown
Longitude
Unknown
Altitude
Unknown
Speed
Unknown
Apparent Right ascension
Unknown
Apparent Declination
Unknown
Sunlit
N/A
Visualization observer readout
Local Sidereal Time
13:45:09
Azimuth
Unknown
Elevation
Unknown
Doppler factor
Unknown
Orbital elements
Apogee altitude
859.735 km
Perigee altitude
814.157 km
Semi-major axis
7,215.083 km
Eccentricity
0.00316
Inclination
83.1708°
RAAN
48.7051°
Arg. of periapsis
113.2767°
True anomaly
246.84122°
Mean anomaly
247.1743°
Eccentric anomaly
247.00771°
Mean motion
3.54145 °/min
Orbital period
101.65 mins
BSTAR
0.001725
Loading maneuver chart data...
Computing Atmospheric mass density...

Documentation

Showing up to 5 results
|